Regional Weather Roundup
Issued by NWS Jackson, KY

Home | Current Version | Previous Version | Graphics & Text | Print | Product List | Glossary On
Versions: 1 2 3 4 5 6 7 8 9 10 11 12 13 14 15 16 17 18 19 20 21 22 23 24 25 26 27 28 29 30 31 32 33 34 35 36 37 38 39 40 41 42 43 44 45 46 47 48 49 50
000
ASUS43 KJKL 242005
RWRJKL

EAST KENTUCKY HOURLY WEATHER ROUNDUP
NATIONAL WEATHER SERVICE JACKSON KY
400 PM EDT THU APR 24 2014

NOTE: "FAIR" INDICATES FEW OR NO CLOUDS BELOW 12,000 FEET WITH
NO SIGNIFICANT WEATHER AND/OR OBSTRUCTIONS TO VISIBILITY.

* THESE REPORTS ARE NOT UNDER NWS QUALITY CONTROL AND MAY NOT
  REPORT WEATHER SUCH AS PRECIPITATION AND FOG.

KYZ079-080-083-085-087-088-110-112-115-119-120-242100
...EASTERN KENTUCKY...

CITY           SKY/WX    TMP DP  RH WIND       PRES   REMARKS
JACKSON        SUNNY     73  29  19 CALM      29.94F
LONDON         SUNNY     76  33  21 VRB3      29.92F
SOMERSET*      SUNNY     77  32  19 SW3       29.91F
WILLIAMSBURG*  SUNNY     77  36  22 S3        29.91
MIDDLESBORO*   SUNNY     77  34  20 S9        29.93F
HARLAN APT*    PTCLDY    77  23  13 SW9       29.92F
BLACK MTN*       N/A     66  23  19 SW6         N/A
PIKEVILLE APT* SUNNY     72  32  23 CALM      29.95F
BIG SANDY*     PTCLDY    70  32  24 N5        29.95F
$$

KYZ035-036-041-042-044-050-067-078-099-242100
...CENTRAL KENTUCKY...

CITY           SKY/WX    TMP DP  RH WIND       PRES   REMARKS
MT STERLING*   MOSUNNY   68  36  30 CALM      29.96F
FLEMING/MASON* MOSUNNY   65  31  27 E8        29.96F
DANVILLE*      MOSUNNY   72  37  28 S3        29.93F
RICHMOND*      MOSUNNY   72  37  28 N3        29.92F
LEXINGTON      SUNNY     71  39  31 E7        29.93F
FRANKFORT      MOSUNNY   70  40  33 E10       29.91F
$$

KYZ091>093-OHZ055-061-077-WVZ005-015-034-035-042-242100
...SOUTHERN OHIO/WEST VIRGINIA...

CITY           SKY/WX    TMP DP  RH WIND       PRES   REMARKS
COVINGTON      PTSUNNY   64  30  27 SE16      29.94F
COLUMBUS       PTSUNNY   62  18  18 VRB5G16   30.00F
DAYTON         CLOUDY    62  22  21 SE14      29.97F
WILMINGTON     MOSUNNY   62  18  18 E12       29.96F
HUNTINGTON     SUNNY     68  23  18 N7        29.96F
CHARLESTON     PTSUNNY   69  17  13 VRB3      29.97F
PINEVILLE*     SUNNY     75  29  18 MISG      30.00F
BECKLEY        MOSUNNY   67  21  17 VRB3      29.99F
BLUEFIELD      SUNNY     74  23  15 W8        29.98F
$$

VAZ002-007-008-TNZ017-027-036-066-071-242100
...SOUTHWEST VIRGINIA/EAST TENNESSEE...

CITY           SKY/WX    TMP DP  RH WIND       PRES   REMARKS
WISE*          MOSUNNY   73  19  13 SW6       29.97F
ABINGDON*      SUNNY     75  24  15 W3        29.96F
BRISTOL        MOSUNNY   77  25  14 SW10      29.94F
KNOXVILLE      PTSUNNY   76  40  27 NW7       29.92F
OAK RIDGE      PTSUNNY   77  36  22 VRB6      29.94F
CROSSVILLE     PTSUNNY   73  32  22 S8        29.95F
NASHVILLE      PTSUNNY   80  40  23 SW12G22   29.88F
$$

...KEY TO REMARKS...
VSB - VISIBILITY IN MILES
WCI - WIND CHILL INDEX
HX  - HEAT INDEX

$$



USA.gov is the U.S. government's official web portal to all federal, state and local government web resources and services.